World > North America > United States > New York

Hourly Tomkins Cove, NY Regional Weather

Feedback E-mail the Weather

Latest News

Tomkins Cove, NY Weather Maps

°F °C°F °C
Tomkins Cove Weather Map
UTC Time: 5/27/2022, 14:52
Your Time:

Tomkins Cove, NY Regional Weather

Expires:202205271500;;649594
ASUS41 KALY 271410
RWRALY

NEW YORK STATE HOURLY WEATHER ROUNDUP
NATIONAL WEATHER SERVICE ALBANY NY
1000 AM EDT FRI MAY 27 2022

NOTE: "FAIR" INDICATES FEW OR NO CLOUDS BELOW 12,000 FEET WITH NO
SIGNIFICANT WEATHER AND/OR NO OBSTRUCTIONS TO VISIBILITY.


NYZ032-033-038>043-046>054-057>066-NYZ062>081-082-084-271500-
EAST

  
CITY           SKY/WX    TMP DP  RH WIND       PRES   REMARKS
ALBANY         PTSUNNY   71  63  75 SE9       29.90F                  
GLENS FALLS    PTSUNNY   72  63  73 SW9       29.87F                  
POUGHKEEPSIE   CLOUDY    69  64  84 VRB3      29.93F                  
NEWBURGH       CLOUDY    70  64  83 S12       29.94F FOG              
MONTGOMERY     CLOUDY    69  64  84 SW6       29.93F                  
WHITE PLAINS   CLOUDY    66  64  93 S6        29.96F FOG              
ISLIP          CLOUDY    63  63 100 S10       29.98S                  
NEW YORK CITY  CLOUDY    69  63  81 SE7       29.95F                  
CENTRAL PARK   CLOUDY    70  64  81 S5        29.98F                  
$$


SKY/WX - Weather  TMP - Temperature  DP - Dew Point  RH - Humidity
WIND - Wind Direction/Speed PRES - Barometric Pressure VSB - Visibility
WCI - Wind Chill Index E13G22 Wind - East Wind 13 mph/Gusts of 22 mph

Trending Headlines

Tomkins Cove Radar Loop



Tomkins Cove Quick Facts


National Two Day Weather Forecast


E-mail the Tomkins Cove Weather Forecast

Voice your opinion or tell us about page issues...